Time,TemperatureF,DewpointF,PressureIn,WindDirection,WindDirectionDegrees,WindSpeedMPH,WindSpeedGustMPH,Humidity,HourlyPrecipIn,Conditions,Clouds,dailyrainin,SoftwareType,DateUTC
2013-02-23 00:00:00,27.2,22.1,30.07,WSW,237,11.0,11.0,81,0.00,,,0.00,Wunderground v.1.15,2013-02-23 06:00:00,
2013-02-23 00:05:00,27.1,22.0,30.07,WSW,241,12.0,12.0,81,0.00,,,0.00,Wunderground v.1.15,2013-02-23 06:05:00,
2013-02-23 00:10:00,27.1,22.0,30.07,SW,231,11.0,11.0,81,0.00,,,0.00,Wunderground v.1.15,2013-02-23 06:10:00,
2013-02-23 00:20:00,26.9,22.1,30.07,SW,234,11.0,13.0,82,0.00,,,0.00,Wunderground v.1.15,2013-02-23 06:20:00,
2013-02-23 00:25:00,26.9,22.1,30.07,SW,234,11.0,13.0,82,0.00,,,0.00,Wunderground v.1.15,2013-02-23 06:25:00,
2013-02-23 00:35:00,26.7,21.9,30.07,SW,228,11.0,12.0,82,0.00,,,0.00,Wunderground v.1.15,2013-02-23 06:35:00,
2013-02-23 00:40:00,26.7,21.9,30.07,SW,230,11.0,12.0,82,0.00,,,0.00,Wunderground v.1.15,2013-02-23 06:40:00,
2013-02-23 00:50:00,26.5,21.7,30.07,SW,230,11.0,11.0,82,0.00,,,0.00,Wunderground v.1.15,2013-02-23 06:50:00,
2013-02-23 00:55:00,26.5,21.7,30.07,SW,232,11.0,12.0,82,0.00,,,0.00,Wunderground v.1.15,2013-02-23 06:55:00,
2013-02-23 01:00:00,26.4,21.9,30.07,SW,232,12.0,13.0,83,0.00,,,0.00,Wunderground v.1.15,2013-02-23 07:00:00,
2013-02-23 01:10:00,26.3,21.8,30.07,SW,228,11.0,11.0,83,0.00,,,0.00,Wunderground v.1.15,2013-02-23 07:10:00,
2013-02-23 01:20:00,26.3,21.8,30.07,SW,233,11.0,11.0,83,0.00,,,0.00,Wunderground v.1.15,2013-02-23 07:20:00,
2013-02-23 01:30:00,26.3,21.8,30.07,SW,236,11.0,11.0,83,0.00,,,0.00,Wunderground v.1.15,2013-02-23 07:30:00,
2013-02-23 01:40:00,26.2,21.7,30.07,SW,235,11.0,11.0,83,0.00,,,0.00,Wunderground v.1.15,2013-02-23 07:40:00,
2013-02-23 01:50:00,26.2,21.7,30.07,WSW,237,10.0,10.0,83,0.00,,,0.00,Wunderground v.1.15,2013-02-23 07:50:00,
2013-02-23 02:00:00,26.1,21.6,30.07,WSW,238,9.0,10.0,83,0.00,,,0.00,Wunderground v.1.15,2013-02-23 08:00:00,
2013-02-23 02:10:00,26.2,21.7,30.06,WSW,241,10.0,10.0,83,0.00,,,0.00,Wunderground v.1.15,2013-02-23 08:10:00,
2013-02-23 02:20:00,26.2,21.5,30.06,WSW,241,11.0,11.0,82,0.00,,,0.00,Wunderground v.1.15,2013-02-23 08:20:00,
2013-02-23 02:25:00,26.2,21.5,30.06,SW,235,10.0,11.0,82,0.00,,,0.00,Wunderground v.1.15,2013-02-23 08:25:00,
2013-02-23 02:30:00,26.2,21.5,30.06,WSW,239,10.0,10.0,82,0.00,,,0.00,Wunderground v.1.15,2013-02-23 08:30:00,
2013-02-23 02:40:00,26.2,21.5,30.06,WSW,240,11.0,11.0,82,0.00,,,0.00,Wunderground v.1.15,2013-02-23 08:40:00,
2013-02-23 02:45:00,26.2,21.5,30.06,WSW,242,11.0,11.0,82,0.00,,,0.00,Wunderground v.1.15,2013-02-23 08:45:00,
2013-02-23 02:55:00,26.1,21.1,30.06,WSW,239,11.0,11.0,81,0.00,,,0.00,Wunderground v.1.15,2013-02-23 08:55:00,
2013-02-23 03:00:00,26.1,21.1,30.06,WSW,241,10.0,10.0,81,0.00,,,0.00,Wunderground v.1.15,2013-02-23 09:00:00,
2013-02-23 03:05:00,26.1,21.1,30.06,SW,236,11.0,11.0,81,0.00,,,0.00,Wunderground v.1.15,2013-02-23 09:05:00,
2013-02-23 03:15:00,26.1,21.1,30.06,WSW,237,11.0,12.0,81,0.00,,,0.00,Wunderground v.1.15,2013-02-23 09:15:00,
2013-02-23 03:20:00,26.0,21.0,30.06,WSW,237,11.0,11.0,81,0.00,,,0.00,Wunderground v.1.15,2013-02-23 09:20:00,
2013-02-23 03:30:00,26.0,21.0,30.06,WSW,249,10.0,10.0,81,0.00,,,0.00,Wunderground v.1.15,2013-02-23 09:30:00,
2013-02-23 03:40:00,25.8,20.8,30.06,WSW,248,10.0,10.0,81,0.00,,,0.00,Wunderground v.1.15,2013-02-23 09:40:00,
2013-02-23 03:45:00,25.8,20.8,30.06,WSW,239,11.0,12.0,81,0.00,,,0.00,Wunderground v.1.15,2013-02-23 09:45:00,
2013-02-23 03:55:00,25.5,20.5,30.06,WSW,237,11.0,14.0,81,0.00,,,0.00,Wunderground v.1.15,2013-02-23 09:55:00,
2013-02-23 04:05:00,25.3,20.3,30.06,SW,236,11.0,12.0,81,0.00,,,0.00,Wunderground v.1.15,2013-02-23 10:05:00,
2013-02-23 04:10:00,25.1,20.1,30.06,WSW,240,10.0,11.0,81,0.00,,,0.00,Wunderground v.1.15,2013-02-23 10:10:00,
2013-02-23 04:15:00,24.9,19.9,30.06,WSW,241,10.0,11.0,81,0.00,,,0.00,Wunderground v.1.15,2013-02-23 10:15:00,
2013-02-23 04:25:00,24.6,19.3,30.06,WSW,238,10.0,11.0,80,0.00,,,0.00,Wunderground v.1.15,2013-02-23 10:25:00,
2013-02-23 04:35:00,24.1,19.1,30.07,SW,234,10.0,10.0,81,0.00,,,0.00,Wunderground v.1.15,2013-02-23 10:35:00,
2013-02-23 04:45:00,23.6,18.6,30.07,WSW,240,10.0,10.0,81,0.00,,,0.00,Wunderground v.1.15,2013-02-23 10:45:00,
2013-02-23 04:50:00,23.4,18.4,30.07,WSW,240,10.0,12.0,81,0.00,,,0.00,Wunderground v.1.15,2013-02-23 10:50:00,
2013-02-23 05:00:00,23.0,18.0,30.07,WSW,238,9.0,9.0,81,0.00,,,0.00,Wunderground v.1.15,2013-02-23 11:00:00,
2013-02-23 05:05:00,22.7,17.7,30.07,WSW,238,7.0,9.0,81,0.00,,,0.00,Wunderground v.1.15,2013-02-23 11:05:00,
2013-02-23 05:15:00,22.5,17.8,30.08,WSW,240,6.0,7.0,82,0.00,,,0.00,Wunderground v.1.15,2013-02-23 11:15:00,
2013-02-23 05:20:00,22.4,17.7,30.08,WSW,240,7.0,8.0,82,0.00,,,0.00,Wunderground v.1.15,2013-02-23 11:20:00,
2013-02-23 05:30:00,22.4,18.0,30.08,WSW,240,7.0,7.0,83,0.00,,,0.00,Wunderground v.1.15,2013-02-23 11:30:00,
2013-02-23 05:40:00,22.4,18.0,30.08,WSW,248,8.0,8.0,83,0.00,,,0.00,Wunderground v.1.15,2013-02-23 11:40:00,
2013-02-23 05:50:00,22.4,17.7,30.08,WSW,250,9.0,12.0,82,0.00,,,0.00,Wunderground v.1.15,2013-02-23 11:50:00,
2013-02-23 05:55:00,22.4,17.7,30.08,WSW,248,9.0,12.0,82,0.00,,,0.00,Wunderground v.1.15,2013-02-23 11:55:00,
2013-02-23 06:05:00,22.2,17.3,30.08,WSW,244,9.0,9.0,81,0.00,,,0.00,Wunderground v.1.15,2013-02-23 12:05:00,
2013-02-23 06:10:00,22.0,17.1,30.07,WSW,246,8.0,8.0,81,0.00,,,0.00,Wunderground v.1.15,2013-02-23 12:10:00,
2013-02-23 06:20:00,21.9,17.2,30.08,WSW,244,7.0,7.0,82,0.00,,,0.00,Wunderground v.1.15,2013-02-23 12:20:00,
2013-02-23 06:25:00,21.7,17.1,30.08,WSW,244,7.0,8.0,82,0.00,,,0.00,Wunderground v.1.15,2013-02-23 12:25:00,
2013-02-23 06:35:00,21.6,17.0,30.08,WSW,244,6.0,7.0,82,0.00,,,0.00,Wunderground v.1.15,2013-02-23 12:35:00,
2013-02-23 06:45:00,21.7,17.3,30.08,WSW,248,7.0,7.0,83,0.00,,,0.00,Wunderground v.1.15,2013-02-23 12:45:00,
2013-02-23 06:50:00,21.9,17.5,30.08,WSW,251,7.0,8.0,83,0.00,,,0.00,Wunderground v.1.15,2013-02-23 12:50:00,
2013-02-23 07:00:00,22.4,18.0,30.08,WSW,255,7.0,8.0,83,0.00,,,0.00,Wunderground v.1.15,2013-02-23 13:00:00,
2013-02-23 07:10:00,22.9,18.5,30.07,WSW,246,7.0,8.0,83,0.00,,,0.00,Wunderground v.1.15,2013-02-23 13:10:00,
2013-02-23 07:15:00,23.1,18.4,30.07,WSW,256,7.0,8.0,82,0.00,,,0.00,Wunderground v.1.15,2013-02-23 13:15:00,
2013-02-23 07:25:00,23.5,18.5,30.08,WSW,255,7.0,9.0,81,0.00,,,0.00,Wunderground v.1.15,2013-02-23 13:25:00,
2013-02-23 07:30:00,23.7,18.7,30.08,WSW,256,7.0,9.0,81,0.00,,,0.00,Wunderground v.1.15,2013-02-23 13:30:00,
2013-02-23 07:35:00,23.9,18.9,30.07,WSW,252,7.0,9.0,81,0.00,,,0.00,Wunderground v.1.15,2013-02-23 13:35:00,
2013-02-23 07:45:00,24.4,19.1,30.07,West,265,7.0,7.0,80,0.00,,,0.00,Wunderground v.1.15,2013-02-23 13:45:00,
2013-02-23 07:55:00,24.7,19.1,30.08,WSW,250,8.0,9.0,79,0.00,,,0.00,Wunderground v.1.15,2013-02-23 13:55:00,
2013-02-23 08:00:00,24.9,19.0,30.08,WSW,257,8.0,9.0,78,0.00,,,0.00,Wunderground v.1.15,2013-02-23 14:00:00,
2013-02-23 08:10:00,25.3,19.4,30.09,WSW,251,9.0,9.0,78,0.00,,,0.00,Wunderground v.1.15,2013-02-23 14:10:00,
2013-02-23 08:20:00,25.8,19.6,30.09,West,265,10.0,10.0,77,0.00,,,0.00,Wunderground v.1.15,2013-02-23 14:20:00,
2013-02-23 08:25:00,26.2,20.0,30.08,West,260,9.0,10.0,77,0.00,,,0.00,Wunderground v.1.15,2013-02-23 14:25:00,
2013-02-23 08:35:00,26.8,19.9,30.08,West,260,8.0,8.0,75,0.00,,,0.00,Wunderground v.1.15,2013-02-23 14:35:00,
2013-02-23 08:40:00,27.0,20.1,30.09,West,263,8.0,8.0,75,0.00,,,0.00,Wunderground v.1.15,2013-02-23 14:40:00,
2013-02-23 08:50:00,27.3,20.1,30.08,West,259,9.0,9.0,74,0.00,,,0.00,Wunderground v.1.15,2013-02-23 14:50:00,
2013-02-23 09:00:00,28.1,20.9,30.08,West,264,8.0,11.0,74,0.00,,,0.00,Wunderground v.1.15,2013-02-23 15:00:00,
2013-02-23 09:05:00,28.4,20.8,30.09,WSW,252,9.0,11.0,73,0.00,,,0.00,Wunderground v.1.15,2013-02-23 15:05:00,
2013-02-23 09:15:00,28.5,20.9,30.08,WSW,257,8.0,9.0,73,0.00,,,0.00,Wunderground v.1.15,2013-02-23 15:15:00,
2013-02-23 09:20:00,28.4,20.5,30.08,West,261,8.0,8.0,72,0.00,,,0.00,Wunderground v.1.15,2013-02-23 15:20:00,
2013-02-23 09:30:00,28.8,20.6,30.07,WSW,248,8.0,8.0,71,0.00,,,0.00,Wunderground v.1.15,2013-02-23 15:30:00,
2013-02-23 09:40:00,29.9,21.6,30.08,WSW,241,8.0,10.0,71,0.00,,,0.00,Wunderground v.1.15,2013-02-23 15:40:00,
2013-02-23 09:45:00,30.3,21.3,30.08,WSW,255,9.0,10.0,69,0.00,,,0.00,Wunderground v.1.15,2013-02-23 15:45:00,
2013-02-23 09:55:00,30.6,21.3,30.08,WSW,253,9.0,10.0,68,0.00,,,0.00,Wunderground v.1.15,2013-02-23 15:55:00,
2013-02-23 10:00:00,30.5,21.2,30.08,WSW,244,9.0,10.0,68,0.00,,,0.00,Wunderground v.1.15,2013-02-23 16:00:00,
2013-02-23 10:10:00,30.1,21.2,30.07,West,262,9.0,9.0,69,0.00,,,0.00,Wunderground v.1.15,2013-02-23 16:10:00,
2013-02-23 10:15:00,30.3,21.3,30.08,WSW,257,9.0,9.0,69,0.00,,,0.00,Wunderground v.1.15,2013-02-23 16:15:00,
2013-02-23 10:25:00,31.0,21.3,30.08,West,260,8.0,9.0,67,0.00,,,0.00,Wunderground v.1.15,2013-02-23 16:25:00,
2013-02-23 10:30:00,31.2,21.2,30.08,WSW,251,9.0,9.0,66,0.00,,,0.00,Wunderground v.1.15,2013-02-23 16:30:00,
2013-02-23 10:40:00,31.4,21.7,30.07,WSW,256,9.0,11.0,67,0.00,,,0.00,Wunderground v.1.15,2013-02-23 16:40:00,
2013-02-23 10:50:00,31.7,21.6,30.07,WSW,252,7.0,7.0,66,0.00,,,0.00,Wunderground v.1.15,2013-02-23 16:50:00,
2013-02-23 10:55:00,31.7,21.3,30.07,West,267,6.0,7.0,65,0.00,,,0.00,Wunderground v.1.15,2013-02-23 16:55:00,
2013-02-23 11:05:00,31.3,20.9,30.07,West,259,7.0,7.0,65,0.00,,,0.00,Wunderground v.1.15,2013-02-23 17:05:00,
2013-02-23 11:10:00,31.4,21.7,30.07,WSW,245,7.0,7.0,67,0.00,,,0.00,Wunderground v.1.15,2013-02-23 17:10:00,
2013-02-23 11:20:00,31.1,21.1,30.08,SW,232,8.0,9.0,66,0.00,,,0.01,Wunderground v.1.15,2013-02-23 17:20:00,
2013-02-23 11:30:00,31.1,21.8,30.08,WSW,242,7.0,10.0,68,0.00,,,0.01,Wunderground v.1.15,2013-02-23 17:30:00,
2013-02-23 11:35:00,31.4,21.3,30.08,WSW,246,8.0,10.0,66,0.00,,,0.01,Wunderground v.1.15,2013-02-23 17:35:00,
2013-02-23 11:45:00,31.1,21.8,30.07,WSW,246,10.0,11.0,68,0.00,,,0.02,Wunderground v.1.15,2013-02-23 17:45:00,
2013-02-23 11:50:00,31.1,22.1,30.07,WSW,238,10.0,10.0,69,0.00,,,0.02,Wunderground v.1.15,2013-02-23 17:50:00,
2013-02-23 12:00:00,31.1,21.8,30.06,SW,234,10.0,10.0,68,0.04,,,0.03,Wunderground v.1.15,2013-02-23 18:00:00,
2013-02-23 12:05:00,31.1,21.8,30.06,SW,228,9.0,10.0,68,0.04,,,0.03,Wunderground v.1.15,2013-02-23 18:05:00,
2013-02-23 12:15:00,30.8,21.5,30.05,SW,232,10.0,10.0,68,0.04,,,0.04,Wunderground v.1.15,2013-02-23 18:15:00,
2013-02-23 12:20:00,30.6,21.6,30.05,SW,227,9.0,9.0,69,0.04,,,0.04,Wunderground v.1.15,2013-02-23 18:20:00,
2013-02-23 12:30:00,30.8,21.5,30.05,SW,236,9.0,9.0,68,0.00,,,0.05,Wunderground v.1.15,2013-02-23 18:30:00,
2013-02-23 12:35:00,30.6,21.6,30.05,SW,236,10.0,10.0,69,0.00,,,0.05,Wunderground v.1.15,2013-02-23 18:35:00,
2013-02-23 12:45:00,30.2,21.6,30.05,WSW,244,11.0,14.0,70,0.00,,,0.05,Wunderground v.1.15,2013-02-23 18:45:00,
2013-02-23 12:55:00,29.7,21.4,30.06,SW,217,12.0,13.0,71,0.00,,,0.05,Wunderground v.1.15,2013-02-23 18:55:00,
2013-02-23 13:00:00,29.6,21.7,30.06,SW,227,13.0,17.0,72,0.00,,,0.05,Wunderground v.1.15,2013-02-23 19:00:00,
2013-02-23 13:10:00,29.6,21.7,30.05,SW,223,14.0,14.0,72,0.00,,,0.05,Wunderground v.1.15,2013-02-23 19:10:00,
2013-02-23 13:15:00,29.8,21.5,30.05,SW,227,14.0,14.0,71,0.00,,,0.05,Wunderground v.1.15,2013-02-23 19:15:00,
2013-02-23 13:25:00,29.7,21.8,30.05,SW,230,13.0,14.0,72,0.00,,,0.06,Wunderground v.1.15,2013-02-23 19:25:00,
2013-02-23 13:35:00,29.8,21.9,30.05,SW,234,13.0,14.0,72,0.00,,,0.06,Wunderground v.1.15,2013-02-23 19:35:00,
2013-02-23 13:40:00,29.6,22.0,30.05,SW,226,12.0,12.0,73,0.00,,,0.06,Wunderground v.1.15,2013-02-23 19:40:00,
2013-02-23 13:45:00,29.4,21.8,30.05,SW,233,12.0,12.0,73,0.00,,,0.06,Wunderground v.1.15,2013-02-23 19:45:00,
2013-02-23 13:55:00,29.1,22.2,30.05,SW,232,12.0,13.0,75,0.00,,,0.06,Wunderground v.1.15,2013-02-23 19:55:00,
2013-02-23 14:05:00,29.0,22.1,30.05,WSW,237,12.0,12.0,75,0.00,,,0.06,Wunderground v.1.15,2013-02-23 20:05:00,
2013-02-23 14:10:00,29.0,22.1,30.05,WSW,255,11.0,11.0,75,0.00,,,0.06,Wunderground v.1.15,2013-02-23 20:10:00,
2013-02-23 14:15:00,29.1,21.8,30.05,WSW,249,11.0,12.0,74,0.00,,,0.06,Wunderground v.1.15,2013-02-23 20:15:00,
2013-02-23 14:25:00,29.0,22.1,30.04,SW,234,12.0,14.0,75,0.00,,,0.06,Wunderground v.1.15,2013-02-23 20:25:00,
2013-02-23 14:35:00,29.2,22.3,30.04,WSW,242,13.0,13.0,75,0.00,,,0.07,Wunderground v.1.15,2013-02-23 20:35:00,
2013-02-23 14:40:00,29.4,22.5,30.04,SW,227,12.0,12.0,75,0.00,,,0.07,Wunderground v.1.15,2013-02-23 20:40:00,
2013-02-23 14:50:00,29.2,22.3,30.04,WSW,238,10.0,11.0,75,0.00,,,0.07,Wunderground v.1.15,2013-02-23 20:50:00,
2013-02-23 14:55:00,29.2,22.3,30.04,SW,234,10.0,13.0,75,0.00,,,0.07,Wunderground v.1.15,2013-02-23 20:55:00,
2013-02-23 15:05:00,29.2,22.6,30.04,WSW,242,11.0,11.0,76,0.00,,,0.07,Wunderground v.1.15,2013-02-23 21:05:00,
2013-02-23 15:10:00,29.3,22.7,30.04,WSW,240,10.0,10.0,76,0.00,,,0.07,Wunderground v.1.15,2013-02-23 21:10:00,
2013-02-23 15:20:00,29.3,22.4,30.04,WSW,255,10.0,10.0,75,0.00,,,0.07,Wunderground v.1.15,2013-02-23 21:20:00,
2013-02-23 15:30:00,29.3,22.4,30.04,WSW,244,11.0,12.0,75,0.00,,,0.07,Wunderground v.1.15,2013-02-23 21:30:00,
2013-02-23 15:35:00,29.3,22.4,30.04,WSW,238,11.0,12.0,75,0.00,,,0.07,Wunderground v.1.15,2013-02-23 21:35:00,
2013-02-23 15:45:00,29.2,22.6,30.04,WSW,241,11.0,12.0,76,0.00,,,0.07,Wunderground v.1.15,2013-02-23 21:45:00,
2013-02-23 15:50:00,29.0,22.4,30.04,WSW,237,11.0,11.0,76,0.00,,,0.07,Wunderground v.1.15,2013-02-23 21:50:00,
2013-02-23 16:00:00,28.8,22.2,30.05,SW,232,10.0,10.0,76,0.00,,,0.07,Wunderground v.1.15,2013-02-23 22:00:00,
2013-02-23 16:10:00,28.8,22.2,30.05,WSW,240,9.0,9.0,76,0.00,,,0.07,Wunderground v.1.15,2013-02-23 22:10:00,
2013-02-23 16:15:00,28.7,22.1,30.05,SW,236,9.0,10.0,76,0.00,,,0.07,Wunderground v.1.15,2013-02-23 22:15:00,
2013-02-23 16:25:00,28.4,22.1,30.05,WSW,240,9.0,9.0,77,0.00,,,0.07,Wunderground v.1.15,2013-02-23 22:25:00,
2013-02-23 16:30:00,28.5,22.2,30.05,WSW,242,10.0,11.0,77,0.00,,,0.07,Wunderground v.1.15,2013-02-23 22:30:00,
2013-02-23 16:40:00,28.5,22.2,30.05,SW,225,11.0,11.0,77,0.00,,,0.07,Wunderground v.1.15,2013-02-23 22:40:00,
2013-02-23 16:45:00,28.3,21.7,30.05,SW,230,11.0,11.0,76,0.00,,,0.07,Wunderground v.1.15,2013-02-23 22:45:00,
2013-02-23 16:55:00,27.9,21.6,30.06,SW,232,11.0,11.0,77,0.00,,,0.07,Wunderground v.1.15,2013-02-23 22:55:00,
2013-02-23 17:00:00,27.8,21.5,30.06,SW,234,11.0,11.0,77,0.00,,,0.07,Wunderground v.1.15,2013-02-23 23:00:00,
2013-02-23 17:10:00,27.6,21.9,30.06,WSW,238,11.0,11.0,79,0.00,,,0.07,Wunderground v.1.15,2013-02-23 23:10:00,
2013-02-23 17:15:00,27.5,21.5,30.06,SW,234,11.0,11.0,78,0.00,,,0.07,Wunderground v.1.15,2013-02-23 23:15:00,
2013-02-23 17:25:00,27.4,21.7,30.05,WSW,248,11.0,13.0,79,0.00,,,0.07,Wunderground v.1.15,2013-02-23 23:25:00,
2013-02-23 17:35:00,27.4,21.7,30.06,West,264,10.0,13.0,79,0.00,,,0.07,Wunderground v.1.15,2013-02-23 23:35:00,
2013-02-23 17:40:00,27.4,21.7,30.06,West,261,8.0,9.0,79,0.00,,,0.07,Wunderground v.1.15,2013-02-23 23:40:00,
2013-02-23 17:50:00,27.4,21.4,30.06,WSW,250,10.0,10.0,78,0.00,,,0.07,Wunderground v.1.15,2013-02-23 23:50:00,
2013-02-23 17:55:00,27.4,21.4,30.06,WSW,255,10.0,10.0,78,0.00,,,0.07,Wunderground v.1.15,2013-02-23 23:55:00,
2013-02-23 18:05:00,27.4,21.4,30.06,WSW,248,9.0,10.0,78,0.00,,,0.07,Wunderground v.1.15,2013-02-24 00:05:00,
2013-02-23 18:10:00,27.3,21.6,30.06,WSW,249,7.0,7.0,79,0.00,,,0.07,Wunderground v.1.15,2013-02-24 00:10:00,
2013-02-23 18:20:00,27.3,21.6,30.07,WSW,256,5.0,5.0,79,0.00,,,0.07,Wunderground v.1.15,2013-02-24 00:20:00,
2013-02-23 18:25:00,27.2,21.2,30.06,WSW,257,4.0,5.0,78,0.00,,,0.07,Wunderground v.1.15,2013-02-24 00:25:00,
2013-02-23 18:35:00,27.0,21.1,30.07,WSW,258,4.0,4.0,78,0.00,,,0.07,Wunderground v.1.15,2013-02-24 00:35:00,
2013-02-23 18:45:00,26.7,20.8,30.07,WSW,258,3.0,4.0,78,0.00,,,0.07,Wunderground v.1.15,2013-02-24 00:45:00,
2013-02-23 18:50:00,26.5,20.6,30.07,WSW,258,3.0,3.0,78,0.00,,,0.07,Wunderground v.1.15,2013-02-24 00:50:00,
2013-02-23 18:55:00,26.3,20.4,30.07,WSW,258,4.0,5.0,78,0.00,,,0.07,Wunderground v.1.15,2013-02-24 00:55:00,
2013-02-23 19:05:00,26.0,20.4,30.07,WSW,258,4.0,4.0,79,0.00,,,0.07,Wunderground v.1.15,2013-02-24 01:05:00,
2013-02-23 19:15:00,25.7,20.1,30.08,WSW,258,3.0,4.0,79,0.00,,,0.07,Wunderground v.1.15,2013-02-24 01:15:00,
2013-02-23 19:20:00,25.6,20.0,30.08,WSW,258,2.0,2.0,79,0.00,,,0.07,Wunderground v.1.15,2013-02-24 01:20:00,
2013-02-23 19:30:00,25.2,19.6,30.08,WSW,258,1.0,3.0,79,0.00,,,0.07,Wunderground v.1.15,2013-02-24 01:30:00,
2013-02-23 19:35:00,25.0,19.7,30.08,WSW,258,2.0,3.0,80,0.00,,,0.07,Wunderground v.1.15,2013-02-24 01:35:00,
2013-02-23 19:45:00,24.7,19.4,30.08,WSW,258,2.0,3.0,80,0.00,,,0.07,Wunderground v.1.15,2013-02-24 01:45:00,
2013-02-23 19:55:00,24.3,19.3,30.08,WSW,258,2.0,2.0,81,0.00,,,0.07,Wunderground v.1.15,2013-02-24 01:55:00,
2013-02-23 20:00:00,24.1,19.1,30.08,WSW,258,2.0,2.0,81,0.00,,,0.07,Wunderground v.1.15,2013-02-24 02:00:00,
2013-02-23 20:10:00,23.9,19.2,30.07,WSW,258,2.0,2.0,82,0.00,,,0.07,Wunderground v.1.15,2013-02-24 02:10:00,
2013-02-23 20:15:00,23.7,19.0,30.07,WSW,258,1.0,2.0,82,0.00,,,0.07,Wunderground v.1.15,2013-02-24 02:15:00,
2013-02-23 20:25:00,23.4,18.7,30.07,WSW,258,0.0,0.0,82,0.00,,,0.07,Wunderground v.1.15,2013-02-24 02:25:00,
2013-02-23 20:30:00,23.2,18.5,30.07,WSW,258,0.0,0.0,82,0.00,,,0.07,Wunderground v.1.15,2013-02-24 02:30:00,
2013-02-23 20:40:00,22.6,17.6,30.08,WSW,258,0.0,0.0,81,0.00,,,0.07,Wunderground v.1.15,2013-02-24 02:40:00,
2013-02-23 20:50:00,22.1,17.4,30.08,WSW,258,0.0,0.0,82,0.00,,,0.07,Wunderground v.1.15,2013-02-24 02:50:00,
2013-02-23 20:55:00,21.8,17.2,30.07,WSW,258,0.0,0.0,82,0.00,,,0.07,Wunderground v.1.15,2013-02-24 02:55:00,
2013-02-23 21:00:00,21.6,17.0,30.08,WSW,258,0.0,0.0,82,0.00,,,0.07,Wunderground v.1.15,2013-02-24 03:00:00,
2013-02-23 21:10:00,21.2,16.8,30.08,WSW,258,0.0,0.0,83,0.00,,,0.07,Wunderground v.1.15,2013-02-24 03:10:00,
2013-02-23 21:20:00,20.8,16.5,30.08,WSW,258,0.0,0.0,83,0.00,,,0.07,Wunderground v.1.15,2013-02-24 03:20:00,
2013-02-23 21:25:00,20.7,16.4,30.08,WSW,258,0.0,0.0,83,0.00,,,0.07,Wunderground v.1.15,2013-02-24 03:25:00,
2013-02-23 21:35:00,20.3,16.0,30.08,WSW,258,0.0,0.0,83,0.00,,,0.07,Wunderground v.1.15,2013-02-24 03:35:00,
2013-02-23 21:40:00,20.1,15.8,30.08,WSW,258,0.0,0.0,83,0.00,,,0.07,Wunderground v.1.15,2013-02-24 03:40:00,
2013-02-23 21:50:00,19.8,15.7,30.09,WSW,258,0.0,0.0,84,0.00,,,0.07,Wunderground v.1.15,2013-02-24 03:50:00,
2013-02-23 22:00:00,19.5,15.5,30.09,WSW,258,0.0,0.0,84,0.00,,,0.07,Wunderground v.1.15,2013-02-24 04:00:00,
2013-02-23 22:05:00,19.4,18.0,30.08,WSW,258,0.0,0.0,94,0.00,,,0.07,Wunderground v.1.15,2013-02-24 04:05:00,
2013-02-23 22:15:00,19.3,15.5,30.09,WSW,258,0.0,0.0,85,0.00,,,0.07,Wunderground v.1.15,2013-02-24 04:15:00,
2013-02-23 22:20:00,19.2,15.4,30.09,WSW,258,0.0,0.0,85,0.00,,,0.07,Wunderground v.1.15,2013-02-24 04:20:00,
2013-02-23 22:30:00,19.1,15.6,30.09,WSW,258,2.0,2.0,86,0.00,,,0.07,Wunderground v.1.15,2013-02-24 04:30:00,
2013-02-23 22:40:00,18.9,15.4,30.09,WSW,258,2.0,2.0,86,0.00,,,0.07,Wunderground v.1.15,2013-02-24 04:40:00,
2013-02-23 22:45:00,18.7,14.9,30.09,WSW,258,3.0,3.0,85,0.00,,,0.07,Wunderground v.1.15,2013-02-24 04:45:00,
2013-02-23 22:50:00,18.5,14.7,30.09,West,259,3.0,3.0,85,0.00,,,0.07,Wunderground v.1.15,2013-02-24 04:50:00,
2013-02-23 23:00:00,18.2,14.4,30.08,WSW,258,1.0,1.0,85,0.00,,,0.07,Wunderground v.1.15,2013-02-24 05:00:00,
2013-02-23 23:05:00,18.1,14.4,30.09,WSW,258,0.0,1.0,85,0.00,,,0.07,Wunderground v.1.15,2013-02-24 05:05:00,
2013-02-23 23:10:00,18.0,14.3,30.09,WSW,258,0.0,0.0,85,0.00,,,0.07,Wunderground v.1.15,2013-02-24 05:10:00,
2013-02-23 23:15:00,17.9,14.4,30.09,WSW,258,0.0,0.0,86,0.00,,,0.07,Wunderground v.1.15,2013-02-24 05:15:00,
2013-02-23 23:25:00,17.9,14.4,30.08,West,259,0.0,0.0,86,0.00,,,0.07,Wunderground v.1.15,2013-02-24 05:25:00,
2013-02-23 23:30:00,17.9,14.4,30.09,WSW,258,0.0,0.0,86,0.00,,,0.07,Wunderground v.1.15,2013-02-24 05:30:00,
2013-02-23 23:40:00,17.8,14.3,30.08,WSW,258,0.0,0.0,86,0.00,,,0.07,Wunderground v.1.15,2013-02-24 05:40:00,
2013-02-23 23:50:00,17.7,14.2,30.09,WSW,258,1.0,3.0,86,0.00,,,0.07,Wunderground v.1.15,2013-02-24 05:50:00,
2013-02-23 23:55:00,17.7,14.5,30.09,WSW,258,3.0,3.0,87,0.00,,,0.07,Wunderground v.1.15,2013-02-24 05:55:00,